TimeCDT,TemperatureF,Dew PointF,Humidity,Sea Level PressureIn,VisibilityMPH,Wind Direction,Wind SpeedMPH,Gust SpeedMPH,PrecipitationIn,Events,Conditions,WindDirDegrees,DateUTC
12:54 AM,33.1,26.1,75,30.11,10.0,NW,8.1,-,N/A,,Overcast,320,2011-10-20 05:54:00
1:54 AM,35.1,26.1,70,30.11,10.0,NNW,6.9,-,N/A,,Overcast,330,2011-10-20 06:54:00
2:54 AM,33.1,27.0,78,30.10,10.0,NW,6.9,-,N/A,,Clear,320,2011-10-20 07:54:00
3:54 AM,32.0,26.1,79,30.11,10.0,NW,5.8,-,N/A,,Overcast,310,2011-10-20 08:54:00
4:54 AM,30.0,25.0,82,30.11,10.0,NW,6.9,-,N/A,,Clear,320,2011-10-20 09:54:00
5:54 AM,26.1,23.0,88,30.12,10.0,NNW,3.5,-,N/A,,Clear,340,2011-10-20 10:54:00
6:54 AM,30.0,25.0,82,30.12,10.0,Calm,Calm,-,N/A,,Clear,0,2011-10-20 11:54:00
7:54 AM,23.0,19.9,88,30.13,10.0,North,4.6,-,N/A,,Clear,360,2011-10-20 12:54:00
8:54 AM,33.1,27.0,78,30.14,10.0,NW,3.5,-,N/A,,Clear,320,2011-10-20 13:54:00
9:54 AM,39.9,30.0,68,30.15,10.0,NNW,10.4,-,N/A,,Clear,330,2011-10-20 14:54:00
10:54 AM,45.0,30.9,58,30.14,10.0,NNW,13.8,-,N/A,,Clear,330,2011-10-20 15:54:00
11:54 AM,48.0,30.9,52,30.13,10.0,NNW,8.1,-,N/A,,Clear,340,2011-10-20 16:54:00
12:54 PM,50.0,30.9,48,30.12,10.0,NNE,8.1,-,N/A,,Clear,20,2011-10-20 17:54:00
1:54 PM,52.0,30.9,45,30.09,10.0,NNW,5.8,-,N/A,,Clear,340,2011-10-20 18:54:00
2:54 PM,51.8,28.4,41,30.05,10.0,NW,8.1,-,N/A,,Clear,310,2011-10-20 19:54:00
3:54 PM,54.0,28.9,38,30.06,10.0,WNW,8.1,-,N/A,,Clear,290,2011-10-20 20:54:00
4:54 PM,54.0,28.9,38,30.06,10.0,Variable,4.6,-,N/A,,Clear,0,2011-10-20 21:54:00
5:54 PM,52.0,28.0,40,30.07,10.0,WNW,4.6,-,N/A,,Clear,300,2011-10-20 22:54:00
6:54 PM,45.0,28.0,52,30.08,10.0,Calm,Calm,-,N/A,,Clear,0,2011-10-20 23:54:00
7:54 PM,43.0,30.0,60,30.10,10.0,Calm,Calm,-,N/A,,Clear,0,2011-10-21 00:54:00
8:54 PM,35.1,27.0,72,30.11,10.0,North,3.5,-,N/A,,Clear,10,2011-10-21 01:54:00
9:54 PM,33.1,27.0,78,30.12,10.0,North,3.5,-,N/A,,Clear,360,2011-10-21 02:54:00
10:54 PM,33.1,27.0,78,30.12,10.0,Calm,Calm,-,N/A,,Clear,0,2011-10-21 03:54:00
11:54 PM,33.8,26.6,75,30.09,10.0,Calm,Calm,-,N/A,,Clear,0,2011-10-21 04:54:00